Wind_Speed
21 20 15 14 14 11 10 9 8 9 9 9 10 10 9 8 7 7 6 6 5 5 5 5 5 5 5 5 5 6 8 8 8 7 7 6 5 5 4 4 3 4 3
24 21 17 14 13 12 10 9 9 8 9 9 9 8 7 7 7 6 6 5 4 4 4 5 5 4 4 5 6 6 6 6 5 4 7 8 6 5 6 7 5 3 2
24 22 18 14 12 10 9 9 8 8 8 8 7 7 7 7 7 6 5 5 5 6 7 7 6 7 6 5 6 6 5 4 3 3 7 6 6 7 10 7 7 6 5
23 21 17 14 13 11 10 10 9 8 7 7 7 8 7 6 5 5 5 6 7 8 8 9 9 9 9 9 7 6 5 4 4 4 5 6 5 4 9 3 10 7 5
23 19 17 15 13 12 10 8 8 8 8 8 8 7 6 6 6 6 7 8 8 9 8 8 9 10 11 11 9 7 6 4 3 4 5 5 5 5 4 12 12 9 8
22 19 16 15 13 11 9 8 7 8 8 7 8 7 7 6 6 7 8 8 8 8 7 8 8 8 8 8 7 6 5 3 3 4 4 4 5 5 7 9 11 13 9
22 20 17 13 11 9 7 7 8 9 9 8 8 7 6 6 7 8 8 8 7 6 6 6 7 7 7 7 7 7 6 4 3 3 3 4 5 5 6 9 10 10 11
23 20 16 12 9 8 8 9 9 10 9 8 8 7 7 8 9 8 9 9 8 8 8 8 10 10 9 8 7 8 9 8 5 5 4 4 4 4 7 8 8 9 12
19 16 14 11 10 9 9 9 9 10 9 9 9 9 9 9 9 10 9 10 10 10 10 10 12 13 12 11 9 10 9 10 6 6 6 6 6 8 8 8 12 11 13
17 13 11 11 11 10 11 11 10 11 10 9 10 10 9 9 8 9 9 9 9 10 10 10 13 14 15 15 14 13 13 9 9 10 10 11 11 9 10 10 11 13 15
16 13 11 12 14 13 13 13 11 10 9 9 8 8 7 7 6 6 7 7 8 9 9 9 11 13 15 17 17 16 14 12 12 12 14 16 16 16 15 13 13 14 16
16 14 12 11 12 13 12 12 10 9 9 6 6 4 4 3 4 4 5 5 6 5 5 7 9 10 12 16 17 16 16 15 15 14 14 15 15 17 17 16 15 16 17
15 17 14 13 12 11 9 8 7 5 5 3 2 3 1 2 3 3 3 3 4 5 6 8 9 10 13 17 19 18 18 18 17 16 15 15 16 16 19 21 21 19 18
20 17 16 15 13 12 8 5 3 2 2 2 3 5 5 7 6 5 4 4 6 7 8 9 11 13 15 18 20 18 18 19 19 19 18 17 18 18 17 18 21 23 23
22 19 17 17 15 9 7 5 4 4 4 5 5 7 9 9 9 8 8 8 10 12 13 14 16 18 20 22 23 23 24 23 20 20 20 19 19 20 21 20 20 21 22
25 22 20 20 15 9 6 6 4 5 7 8 8 9 10 11 12 12 12 12 13 14 16 18 19 20 22 24 27 30 30 27 25 23 22 22 22 23 23 24 24 23 22
27 24 23 19 16 8 9 8 6 5 5 6 8 9 12 13 12 12 13 13 14 17 18 18 21 24 28 30 31 31 29 28 27 28 28 28 29 28 24 25 27 27 24
30 29 27 24 19 14 6 11 8 7 9 8 9 12 14 15 13 13 14 15 17 19 20 23 27 30 31 30 32 32 31 29 27 26 24 25 27 28 28 30 26 28 28
33 32 33 27 18 9 8 11 9 7 8 9 10 14 17 16 15 15 16 17 18 22 25 28 30 31 33 35 35 35 33 31 30 27 25 25 26 27 27 27 26 28 28
30 34 25 18 13 11 9 10 8 7 7 7 8 9 9 12 13 15 18 20 24 27 28 29 30 32 33 35 37 36 32 28 23 14 15 17 20 23 24 24 22 25 28
22 22 18 9 0 3 6 6 6 6 3 4 5 7 9 12 15 19 22 26 27 27 29 30 32 33 36 38 39 36 36 16 17 22 17 20 23 23 23 22 22 22 22
9 9 9 8 6 4 3 4 4 4 7 10 13 15 19 23 25 27 28 30 30 32 35 34 32 31 28 24 25 26 18 33 16 29 26 19 23 28 29 29 27 24 21
12 11 11 9 7 5 4 5 6 8 14 19 20 20 20 20 22 25 25 26 28 32 27 22 21 19 21 21 22 22 18 14 35 29 34 18 21 24 27 30 31 31 30
13 10 11 10 8 9 11 11 14 15 17 17 18 18 18 20 22 24 25 28 26 22 22 20 20 19 19 20 22 20 19 21 26 26 20 26 21 22 21 20 21 19 20
9 7 5 3 1 5 9 13 13 14 16 15 13 15 17 23 28 30 30 26 27 27 26 22 18 17 17 18 22 19 17 16 19 20 21 17 29 24 21 15 15 13 10
8 4 1 3 7 9 11 13 16 17 15 13 14 18 23 26 28 27 27 29 31 29 27 22 20 18 18 20 16 15 19 19 23 21 24 31 30 31 29 18 10 8 9
Wind_Direction
161 154 152 156 158 153 145 135 123 119 118 117 115 116 116 111 103 93 81 71 64 48 27 17 10 1 350 339 325 320 316 314 322 323 311 302 312 343 358 359 16 51 38
159 147 150 156 153 149 144 141 135 127 124 121 114 108 97 83 76 66 59 55 45 32 22 8 359 2 352 335 324 328 326 326 313 285 275 290 305 324 322 329 307 350 5
154 149 154 155 153 153 156 147 138 138 131 121 117 96 79 70 61 57 50 41 29 22 19 20 15 12 5 355 345 337 330 327 310 269 262 272 297 322 341 11 329 290 292
153 152 152 155 158 159 153 145 141 135 129 114 97 90 87 83 73 58 48 42 37 32 25 23 17 19 19 23 13 2 355 331 303 286 275 275 268 294 330 7 344 318 298
151 153 155 158 153 146 136 128 131 129 121 114 110 98 84 66 55 50 49 45 43 43 37 42 38 34 32 35 33 26 17 7 325 285 274 268 270 292 305 304 318 310 288
153 154 150 147 141 132 130 134 132 131 120 115 104 95 84 75 60 55 53 53 49 51 45 41 35 28 28 32 26 15 14 4 314 280 268 272 264 298 311 287 308 309 288
149 144 141 136 131 127 131 137 131 119 117 115 104 97 89 72 64 62 56 53 45 37 26 28 18 11 8 7 9 1 354 346 305 264 267 252 269 295 309 317 316 307 301
142 137 131 128 124 130 135 120 118 119 117 117 109 98 85 81 73 62 53 47 37 29 23 21 15 7 4 356 356 354 350 335 306 267 254 278 279 287 285 298 309 304 289
133 130 127 128 132 125 120 121 128 122 124 117 110 97 91 80 77 74 66 55 48 43 46 35 38 35 31 28 14 356 347 339 316 295 279 283 294 289 291 295 298 302 304
133 130 125 126 122 120 121 126 124 121 122 112 107 99 97 85 80 68 62 51 53 49 47 50 38 36 34 27 17 6 3 336 310 303 293 293 287 290 288 282 288 305 308
144 141 127 126 115 122 126 125 124 119 116 110 105 96 90 80 66 53 55 49 40 43 43 36 30 27 22 15 11 6 359 351 343 323 302 295 293 293 286 285 292 300 307
163 157 145 146 134 134 125 117 116 105 111 115 90 88 86 63 61 55 49 32 25 32 26 13 5 1 0 357 353 353 352 348 346 337 328 326 312 296 294 288 287 292 298
170 167 157 155 146 147 134 137 137 133 115 113 48 9 315 336 2 10 16 7 338 340 343 340 342 340 337 338 338 335 334 333 332 330 328 326 325 317 297 293 292 291 293
185 179 166 162 161 151 146 156 159 190 196 233 292 318 320 304 311 314 299 301 299 309 314 321 323 323 321 319 322 320 318 315 314 312 312 313 314 314 312 307 300 294 293
193 186 181 176 174 167 168 196 216 230 262 279 284 303 311 301 290 299 294 294 301 307 309 308 308 308 310 313 314 316 314 309 302 298 297 294 292 294 297 301 305 305 298
199 196 189 188 179 186 189 219 231 254 270 274 288 305 307 304 294 303 300 298 296 296 300 302 302 307 309 310 310 311 308 305 301 295 291 289 285 282 277 280 287 294 299
211 203 197 196 183 201 205 227 236 246 248 271 296 284 280 275 283 288 287 287 286 291 295 294 296 304 307 308 312 311 309 305 299 294 292 290 287 282 280 274 268 273 282
218 209 199 192 200 179 226 215 216 213 231 236 245 247 252 255 262 266 273 276 278 282 289 297 304 307 311 312 313 310 309 309 309 307 304 297 288 284 282 273 272 260 263
221 212 198 191 194 221 234 213 229 221 213 233 240 238 247 253 258 263 274 285 295 303 305 307 307 311 311 309 309 309 306 303 305 302 299 291 291 292 291 282 273 262 255
214 209 210 227 246 216 209 209 211 226 252 262 240 241 249 257 266 279 291 303 305 306 308 308 310 311 311 313 312 309 308 308 305 300 301 296 291 289 292 293 290 273 263
179 203 224 265 119 155 189 193 224 258 273 283 289 287 289 300 306 307 307 309 312 313 315 314 310 310 309 309 310 309 315 321 296 299 295 299 302 299 296 295 295 291 280
103 104 99 104 99 103 107 105 71 20 343 330 323 319 318 316 315 319 320 319 315 314 312 307 306 308 311 318 324 327 325 318 310 308 318 310 304 301 298 294 289 288 290
109 107 107 100 93 76 40 12 348 334 329 330 324 311 310 314 312 309 308 311 312 314 313 315 317 319 318 318 319 320 323 310 314 314 316 326 313 309 306 303 296 293 285
102 77 57 51 42 20 8 351 337 324 322 315 307 306 307 308 307 309 315 321 322 321 322 322 320 314 311 312 312 310 306 310 316 312 297 305 310 314 321 330 324 307 292
91 85 73 63 352 329 328 329 323 319 316 307 297 297 297 308 315 318 321 324 326 327 329 327 327 326 322 319 317 309 308 312 311 310 308 306 313 311 313 327 338 326 320
115 103 17 304 316 318 314 317 321 317 311 302 300 308 319 318 317 320 323 323 326 325 322 321 318 316 311 317 315 308 309 307 306 302 302 305 306 313 317 320 306 328 329
Height
1541 1543 1547 1549 1550 1552 1552 1553 1554 1554 1554 1555 1555 1556 1557 1557 1558 1558 1558 1558 1558 1558 1557 1557 1557 1557 1556 1556 1555 1554 1553 1553 1552 1552 1551 1551 1550 1551 1550 1549 1550 1550 1549
1539 1542 1546 1549 1550 1552 1553 1553 1553 1554 1555 1556 1557 1557 1557 1556 1556 1557 1557 1558 1558 1557 1556 1556 1556 1555 1555 1554 1555 1553 1553 1552 1552 1551 1550 1549 1550 1550 1551 1551 1551 1549 1550
1540 1543 1547 1549 1551 1553 1553 1553 1553 1554 1555 1556 1556 1556 1557 1557 1557 1557 1558 1558 1558 1557 1556 1556 1556 1555 1554 1553 1554 1553 1553 1552 1551 1551 1550 1550 1551 1550 1551 1550 1552 1552 1551
1540 1544 1548 1550 1552 1553 1553 1553 1554 1555 1556 1556 1557 1558 1558 1558 1558 1558 1558 1558 1558 1557 1557 1556 1556 1555 1555 1553 1554 1554 1553 1552 1551 1549 1550 1551 1552 1552 1550 1550 1551 1550 1550
1543 1547 1548 1551 1551 1552 1554 1554 1556 1556 1557 1557 1558 1558 1559 1560 1560 1560 1560 1560 1559 1558 1559 1556 1556 1556 1555 1554 1554 1554 1554 1552 1551 1550 1550 1551 1552 1551 1551 1550 1549 1549 1550
1544 1547 1550 1551 1552 1553 1554 1556 1557 1557 1557 1559 1559 1560 1560 1561 1562 1562 1561 1561 1562 1559 1560 1557 1557 1557 1556 1555 1555 1554 1553 1552 1551 1550 1550 1551 1551 1551 1550 1549 1548 1547 1548
1545 1548 1551 1553 1554 1554 1555 1556 1556 1557 1558 1559 1560 1561 1561 1563 1562 1562 1562 1561 1562 1562 1562 1557 1557 1557 1556 1556 1555 1555 1554 1553 1551 1550 1550 1550 1550 1550 1550 1549 1549 1547 1547
1547 1550 1552 1554 1555 1555 1556 1556 1556 1557 1558 1559 1560 1560 1562 1561 1562 1563 1562 1561 1562 1562 1562 1559 1558 1557 1555 1556 1555 1555 1554 1553 1551 1550 1550 1550 1550 1550 1549 1549 1549 1548 1548
1550 1552 1553 1555 1555 1555 1556 1556 1557 1558 1559 1559 1560 1560 1562 1562 1562 1562 1564 1563 1562 1564 1562 1561 1559 1558 1556 1556 1555 1555 1554 1552 1552 1550 1550 1550 1549 1549 1548 1548 1548 1548 1547
1551 1552 1554 1555 1555 1556 1557 1557 1558 1559 1559 1560 1561 1562 1561 1561 1563 1563 1563 1563 1563 1563 1562 1562 1560 1559 1558 1557 1556 1555 1554 1553 1552 1551 1550 1549 1548 1547 1547 1547 1546 1546 1545
1550 1553 1555 1556 1557 1558 1558 1558 1558 1561 1560 1561 1562 1562 1563 1562 1562 1563 1563 1562 1563 1562 1563 1562 1560 1559 1558 1557 1556 1555 1554 1553 1551 1550 1548 1547 1546 1546 1545 1544 1543 1543 1542
1551 1553 1555 1556 1557 1558 1559 1558 1560 1561 1559 1562 1562 1563 1562 1564 1563 1563 1563 1563 1563 1562 1562 1561 1560 1559 1558 1557 1555 1555 1554 1552 1550 1549 1547 1545 1543 1542 1541 1541 1541 1540 1539
1550 1552 1553 1557 1558 1559 1558 1560 1558 1560 1561 1562 1562 1563 1562 1563 1563 1562 1562 1562 1563 1562 1561 1560 1559 1558 1557 1555 1554 1553 1552 1552 1550 1548 1546 1544 1542 1540 1539 1538 1537 1537 1536
1549 1553 1554 1555 1558 1558 1557 1558 1558 1557 1559 1562 1562 1562 1562 1564 1563 1562 1562 1561 1562 1561 1560 1559 1558 1556 1554 1553 1551 1550 1549 1548 1547 1546 1544 1542 1540 1538 1537 1535 1533 1532 1531
1548 1551 1553 1554 1556 1556 1556 1558 1558 1558 1557 1559 1561 1562 1563 1563 1563 1562 1561 1560 1560 1559 1558 1556 1555 1553 1551 1550 1549 1547 1545 1544 1543 1541 1539 1538 1536 1535 1534 1533 1531 1529 1527
1547 1548 1550 1552 1553 1556 1556 1559 1559 1558 1559 1558 1561 1561 1562 1562 1562 1560 1560 1559 1558 1556 1555 1553 1551 1550 1548 1546 1544 1542 1540 1539 1537 1536 1534 1532 1531 1529 1528 1527 1527 1526 1524
1546 1548 1550 1551 1553 1555 1556 1559 1559 1558 1558 1559 1560 1560 1561 1561 1560 1559 1558 1556 1554 1553 1551 1549 1547 1545 1544 1541 1539 1537 1535 1533 1531 1529 1528 1527 1525 1523 1522 1521 1520 1520 1520
1546 1548 1550 1552 1554 1555 1557 1559 1558 1557 1557 1558 1559 1559 1558 1558 1557 1555 1555 1553 1551 1549 1547 1545 1542 1540 1537 1534 1532 1531 1529 1527 1525 1523 1521 1518 1516 1515 1514 1514 1513 1513 1514
1545 1548 1547 1543 1551 1552 1556 1557 1556 1556 1556 1556 1557 1556 1555 1555 1554 1554 1552 1549 1547 1546 1544 1541 1539 1535 1531 1528 1526 1524 1523 1521 1519 1516 1514 1512 1510 1508 1506 1506 1505 1505 1505
1542 1546 1548 1548 1550 1553 1554 1553 1554 1555 1554 1554 1555 1555 1555 1555 1554 1552 1550 1548 1546 1544 1541 1538 1534 1531 1526 1522 1520 1517 1515 1515 1512 1511 1508 1506 1504 1502 1500 1499 1497 1497 1497
1544 1549 1548 1549 1553 1554 1554 1555 1555 1555 1555 1556 1556 1556 1555 1555 1553 1551 1548 1546 1543 1540 1537 1533 1529 1525 1522 1518 1513 1510 1508 1508 1507 1506 1503 1500 1498 1497 1495 1493 1492 1490 1489
1546 1550 1551 1553 1555 1556 1557 1557 1557 1557 1557 1558 1558 1556 1555 1552 1550 1547 1544 1541 1538 1535 1532 1527 1524 1520 1518 1515 1512 1508 1503 1501 1500 1501 1499 1496 1493 1491 1490 1488 1486 1485 1483
1550 1552 1553 1556 1558 1559 1560 1559 1559 1559 1558 1557 1556 1553 1551 1548 1546 1543 1539 1536 1533 1530 1526 1524 1521 1518 1515 1513 1511 1509 1503 1498 1494 1495 1494 1492 1489 1487 1484 1481 1480 1478 1477
1552 1554 1555 1556 1557 1557 1557 1558 1558 1557 1555 1553 1550 1548 1546 1544 1541 1539 1536 1532 1529 1525 1522 1520 1517 1515 1512 1510 1508 1507 1505 1501 1495 1488 1489 1488 1486 1482 1479 1477 1474 1472 1471
1553 1554 1555 1555 1554 1553 1553 1552 1551 1550 1549 1548 1547 1545 1543 1541 1538 1534 1531 1527 1524 1520 1517 1514 1512 1510 1508 1506 1504 1501 1499 1497 1494 1490 1482 1480 1479 1478 1476 1475 1472 1469 1467
1552 1553 1554 1553 1552 1551 1550 1549 1548 1547 1546 1545 1544 1543 1541 1538 1534 1531 1528 1524 1520 1516 1513 1510 1508 1506 1504 1502 1499 1498 1496 1493 1489 1486 1482 1476 1474 1471 1470 1470 1470 1468 1465